Location: ????????
(55.4000°N, 39.1167°E)
Time: 04:18:04
(UTC+00:00)

Cosmos 494 Rocket - Pass Details

Date: 19 May 2025
Orbit: 737 x 767 km, 74.1° (Epoch: 19 June)

Event Time Altitude Azimuth Distance (km) Brightness Sun altitude
Exits shadow 22:27:55 20° 199° (SSW) 1,691 5.1 -13.3°
Maximum altitude 22:31:33 78° 115° (ESE) 768 4.0 -13.1°
Drops below altitude 10° 22:36:43 10° 30° (NNE) 2,284 7.9 -12.9°
Sets 22:39:06 0° 29° (NNE) 3,217 9.1 -12.8°
